Regional Weather Roundup
Issued by NWS

Home | Current Version | Previous Version | Text Only | Print | Product List | Glossary Off
Versions: 1 2 3 4 5 6 7 8 9 10 11 12 13 14 15 16 17 18 19 20 21 22 23 24 25 26 27 28 29 30 31 32 33 34 35 36 37 38 39 40 41 42 43 44 45 46 47 48 49 50

000
ASUS45 KABQ 050410
RWRNM
NEW MEXICO REGIONAL WEATHER ROUNDUP
NATIONAL WEATHER SERVICE ALBUQUERQUE NM
1000 PM MDT SAT JUL 04 2015

NOTE: "FAIR" MEANS FEW OR NO CLOUDS BELOW 12,000 FEET AGL WITH NO
       SIGNIFICANT WEATHER OR OBSTRUCTIONS TO VISION.

      THIS PRODUCT IS RELEASED AS TWO VERSIONS.  ONE VERSION NEAR
      THE TOP OF THE HOUR CONTAINING PRELIMINARY DATA FROM ALBUQUERQUE
      AND OTHER STATIONS.  A FINAL VERSION WITH ADDITIONAL DATA IS
      ISSUED ABOUT 10 MINUTES AFTER THE HOUR.

NMZ501-503-504-510>518-050500-
NORTHWEST PLATEAU/NORTHCENTRAL MOUNTAINS

CITY           SKY/WX    TMP DP  RH WIND       PRES   REMARKS
FARMINGTON     LGT RAIN  64  58  80 E17G28    30.14F
LOS ALAMOS     CLOUDY    69  49  48 CALM      30.25R
SANTA FE       CLOUDY    70  54  56 S5        30.18R
TAOS           CLOUDY    66  43  42 NE7       30.25R
ANGEL FIRE     FAIR      52  50  95 CALM      30.36R

$$
NMZ402-403-502-505>509-050500-
WESTCENTRAL MOUNTAINS/SOUTHWEST MOUNTAINS

CITY           SKY/WX    TMP DP  RH WIND       PRES   REMARKS
GALLUP         CLOUDY    64  57  78 W3        30.22R
GRANTS         CLOUDY    64  56  76 NW5       30.23S
SILVER CITY    LGT RAIN  66  59  77 NE12      30.14S

$$
NMZ407-409-411-412-050500-
SOUTHERN DESERTS

CITY           SKY/WX    TMP DP  RH WIND       PRES   REMARKS
LORDSBURG      FAIR      77  55  47 W9        30.04R
DEMING         HVY RAIN  70  64  81 N10       30.05R
LAS CRUCES     LGT RAIN  73  62  69 N9        30.07R
HOLLOMAN AFB   MOCLDY    80  57  44 SW14      30.01R
ALAMOGORDO     MOCLDY    81  55  41 SW13      30.03R
T OR C         LGT RAIN  69  65  86 NW12      30.10S

$$
NMZ519>523-050500-
CENTRAL VALLEYS/CENTRAL HIGHLANDS

CITY           SKY/WX    TMP DP  RH WIND       PRES   REMARKS
ALBUQUERQUE    CLOUDY    75  56  51 S9        30.13R
DOUBLE EAGLE   CLEAR     70  57  64 SW7       30.15R
MORIARTY ARPT    N/A     65  54  67 S3        30.20R
CLINES CORNERS NOT AVBL
BELEN          FAIR      73  52  47 W6        30.11R
SOCORRO        FAIR      75  57  53 S6        30.09R

$$
NMZ524>526-539-540-050500-
SOUTHCENTRAL MOUNTAINS

CITY           SKY/WX    TMP DP  RH WIND       PRES   REMARKS
RUIDOSO        NOT AVBL

$$
NMZ527>531-050500-
NORTHEAST HIGHLANDS/NORTHEAST PLAINS

CITY           SKY/WX    TMP DP  RH WIND       PRES   REMARKS
LAS VEGAS      CLOUDY    63  55  75 S9        30.22R
RATON          MOCLDY    65  58  78 N6        30.15R
CLAYTON        PTCLDY    69  54  58 S8        30.06R

$$
NMZ532>537-050500-
EASTCENTRAL PLAINS

CITY           SKY/WX    TMP DP  RH WIND       PRES   REMARKS
TUCUMCARI      CLOUDY    80  56  43 S8        30.02R
CANNON AFB     CLOUDY    73  61  65 S8        30.07R
CLOVIS AIRPORT MOCLDY    75  57  53 S9          N/A

$$
NMZ028-029-538-050500-
SOUTHEAST PLAINS

CITY           SKY/WX    TMP DP  RH WIND       PRES   REMARKS
ROSWELL        MOCLDY    79  56  45 S7        30.01R
ARTESIA        PTCLDY    81  59  47 SE9       30.02R
CARLSBAD       PTCLDY    81  59  47 SE8       29.98R
HOBBS          MOCLDY    77  59  53 SE8       30.05R


$$



USA.gov is the U.S. government's official web portal to all federal, state and local government web resources and services.